Time,TemperatureF,DewpointF,PressureIn,WindDirection,WindDirectionDegrees,WindSpeedMPH,WindSpeedGustMPH,Humidity,HourlyPrecipIn,Conditions,Clouds,dailyrainin,SoftwareType,DateUTC
2013-04-12 00:00:00,37.9,32.3,29.69,NNW,328,3.0,8.0,80,0.00,,CLR,0.00,VWS V14.01,2013-04-12 05:00:00,
2013-04-12 00:05:00,37.9,32.3,29.69,WNW,287,1.0,7.0,80,0.00,,OVC039,0.00,VWS V14.01,2013-04-12 05:05:00,
2013-04-12 00:10:00,37.8,32.5,29.69,WNW,303,2.0,4.0,81,0.00,,OVC039,0.00,VWS V14.01,2013-04-12 05:10:00,
2013-04-12 00:15:00,37.8,32.2,29.69,WNW,284,2.0,9.0,80,0.00,,OVC039,0.00,VWS V14.01,2013-04-12 05:15:00,
2013-04-12 00:20:00,37.8,32.2,29.70,West,262,1.0,3.0,80,0.00,,OVC043,0.00,VWS V14.01,2013-04-12 05:20:00,
2013-04-12 00:25:00,37.8,32.2,29.70,SW,214,5.0,6.0,80,0.00,,OVC043,0.00,VWS V14.01,2013-04-12 05:25:00,
2013-04-12 00:30:00,37.7,32.1,29.69,West,266,1.0,4.0,80,0.00,,OVC043,0.00,VWS V14.01,2013-04-12 05:30:00,
2013-04-12 00:36:00,37.7,32.4,29.70,WNW,293,2.0,6.0,81,0.00,,OVC043,0.00,VWS V14.01,2013-04-12 05:36:00,
2013-04-12 00:40:00,37.7,32.4,29.69,WNW,283,1.0,6.0,81,0.00,,CLR,0.00,VWS V14.01,2013-04-12 05:40:00,
2013-04-12 00:41:00,37.7,32.4,29.69,NW,307,1.0,2.0,81,0.00,,OVC041,0.00,VWS V14.01,2013-04-12 05:41:00,
2013-04-12 00:46:00,37.6,32.0,29.70,NW,309,2.0,9.0,80,0.00,,OVC041,0.00,VWS V14.01,2013-04-12 05:46:00,
2013-04-12 00:50:00,37.6,32.0,29.70,WSW,248,5.0,9.0,80,0.00,,CLR,0.00,VWS V14.01,2013-04-12 05:50:00,
2013-04-12 00:51:00,37.6,32.3,29.70,SW,235,6.0,7.0,81,0.00,,OVC041,0.00,VWS V14.01,2013-04-12 05:51:00,
2013-04-12 00:56:00,37.6,32.3,29.70,SW,231,2.0,7.0,81,0.00,,OVC041,0.00,VWS V14.01,2013-04-12 05:56:00,
2013-04-12 01:00:00,37.6,32.3,29.70,West,266,1.0,7.0,81,0.00,,CLR,0.00,VWS V14.01,2013-04-12 06:00:00,
2013-04-12 01:01:00,37.5,31.9,29.70,SW,226,1.0,6.0,80,0.00,,OVC041,0.00,VWS V14.01,2013-04-12 06:01:00,
2013-04-12 01:07:00,37.5,32.2,29.70,North,352,1.0,10.0,81,0.00,,OVC041,0.00,VWS V14.01,2013-04-12 06:07:00,
2013-04-12 01:10:00,37.5,32.2,29.70,West,264,6.0,10.0,81,0.00,,CLR,0.00,VWS V14.01,2013-04-12 06:10:00,
2013-04-12 01:12:00,37.5,32.2,29.70,West,278,2.0,6.0,81,0.00,,OVC041,0.00,VWS V14.01,2013-04-12 06:12:00,
2013-04-12 01:17:00,37.5,32.2,29.70,WNW,303,1.0,9.0,81,0.00,,OVC041,0.00,VWS V14.01,2013-04-12 06:17:00,
2013-04-12 01:20:00,37.4,32.1,29.69,West,259,7.0,9.0,81,0.00,,CLR,0.00,VWS V14.01,2013-04-12 06:20:00,
2013-04-12 01:22:00,37.5,32.5,29.70,West,267,1.0,8.0,82,0.00,,OVC043,0.00,VWS V14.01,2013-04-12 06:22:00,
2013-04-12 01:27:00,37.4,32.4,29.69,WNW,294,2.0,8.0,82,0.00,,OVC043,0.00,VWS V14.01,2013-04-12 06:27:00,
2013-04-12 01:30:00,37.4,32.1,29.69,West,267,3.0,8.0,81,0.00,,CLR,0.00,VWS V14.01,2013-04-12 06:30:00,
2013-04-12 01:32:00,37.3,32.0,29.69,West,278,2.0,5.0,81,0.00,,OVC043,0.00,VWS V14.01,2013-04-12 06:32:00,
2013-04-12 01:37:00,37.3,32.0,29.69,North,359,2.0,7.0,81,0.00,,OVC043,0.00,VWS V14.01,2013-04-12 06:37:00,
2013-04-12 01:40:00,37.3,32.0,29.69,WNW,295,1.0,7.0,81,0.00,,CLR,0.00,VWS V14.01,2013-04-12 06:40:00,
2013-04-12 01:43:00,37.3,32.0,29.69,North,354,3.0,4.0,81,0.00,,OVC043,0.00,VWS V14.01,2013-04-12 06:43:00,
2013-04-12 01:48:00,37.3,32.0,29.69,SSE,155,2.0,7.0,81,0.00,,OVC043,0.00,VWS V14.01,2013-04-12 06:48:00,
2013-04-12 01:50:00,37.3,32.0,29.69,NW,304,2.0,7.0,81,0.00,,CLR,0.00,VWS V14.01,2013-04-12 06:50:00,
2013-04-12 01:53:00,37.3,32.0,29.68,NW,323,1.0,6.0,81,0.00,,OVC043,0.00,VWS V14.01,2013-04-12 06:53:00,
2013-04-12 01:58:00,37.3,32.0,29.68,WNW,288,3.0,6.0,81,0.00,,OVC043,0.00,VWS V14.01,2013-04-12 06:58:00,
2013-04-12 02:00:00,37.2,31.9,29.68,WSW,241,4.0,6.0,81,0.00,,CLR,0.00,VWS V14.01,2013-04-12 07:00:00,
2013-04-12 02:03:00,37.3,31.7,29.68,WNW,289,2.0,9.0,80,0.00,,OVC045,0.00,VWS V14.01,2013-04-12 07:03:00,
2013-04-12 02:08:00,37.2,31.9,29.68,West,267,1.0,9.0,81,0.00,,OVC045,0.00,VWS V14.01,2013-04-12 07:08:00,
2013-04-12 02:10:00,37.2,31.9,29.68,West,267,1.0,9.0,81,0.00,,CLR,0.00,VWS V14.01,2013-04-12 07:10:00,
2013-04-12 02:14:00,37.2,32.2,29.68,WSW,239,1.0,2.0,82,0.00,,OVC045,0.00,VWS V14.01,2013-04-12 07:14:00,
2013-04-12 02:19:00,37.1,32.1,29.68,West,271,2.0,2.0,82,0.00,,OVC045,0.00,VWS V14.01,2013-04-12 07:19:00,
2013-04-12 02:20:00,37.1,32.1,29.68,WNW,302,0.0,5.0,82,0.00,,CLR,0.00,VWS V14.01,2013-04-12 07:20:00,
2013-04-12 02:24:00,37.1,32.1,29.68,NW,309,3.0,4.0,82,0.00,,OVC047,0.00,VWS V14.01,2013-04-12 07:24:00,
2013-04-12 02:29:00,37.1,32.1,29.68,NNE,13,2.0,2.0,82,0.00,,OVC047,0.00,VWS V14.01,2013-04-12 07:29:00,
2013-04-12 02:30:00,37.1,32.1,29.68,West,273,1.0,5.0,82,0.00,,CLR,0.00,VWS V14.01,2013-04-12 07:30:00,
2013-04-12 02:34:00,37.1,32.4,29.68,West,277,1.0,4.0,83,0.00,,OVC047,0.00,VWS V14.01,2013-04-12 07:34:00,
2013-04-12 02:40:00,37.2,32.2,29.68,WNW,283,4.0,5.0,82,0.00,,OVC047,0.00,VWS V14.01,2013-04-12 07:40:00,
2013-04-12 02:45:00,37.2,32.2,29.68,WNW,300,0.0,6.0,82,0.00,,OVC047,0.00,VWS V14.01,2013-04-12 07:45:00,
2013-04-12 02:50:00,37.2,32.5,29.67,WNW,293,2.0,5.0,83,0.00,,OVC047,0.00,VWS V14.01,2013-04-12 07:50:00,
2013-04-12 02:55:00,37.2,32.2,29.67,West,265,1.0,5.0,82,0.00,,OVC047,0.00,VWS V14.01,2013-04-12 07:55:00,
2013-04-12 03:00:00,37.2,32.5,29.67,West,274,2.0,5.0,83,0.00,,CLR,0.00,VWS V14.01,2013-04-12 08:00:00,
2013-04-12 03:01:00,37.1,32.4,29.67,West,271,1.0,4.0,83,0.00,,OVC045,0.00,VWS V14.01,2013-04-12 08:01:00,
2013-04-12 03:06:00,37.2,32.2,29.67,West,277,3.0,7.0,82,0.00,,OVC045,0.00,VWS V14.01,2013-04-12 08:06:00,
2013-04-12 03:10:00,37.2,32.5,29.67,West,270,5.0,8.0,83,0.00,,CLR,0.00,VWS V14.01,2013-04-12 08:10:00,
2013-04-12 03:11:00,37.2,32.2,29.67,WNW,290,1.0,6.0,82,0.00,,OVC045,0.00,VWS V14.01,2013-04-12 08:11:00,
2013-04-12 03:16:00,37.2,32.2,29.67,WNW,287,3.0,9.0,82,0.00,,OVC045,0.00,VWS V14.01,2013-04-12 08:16:00,
2013-04-12 03:20:00,37.2,32.2,29.67,WSW,255,2.0,9.0,82,0.00,,CLR,0.00,VWS V14.01,2013-04-12 08:20:00,
2013-04-12 03:21:00,37.2,32.2,29.67,West,278,6.0,8.0,82,0.00,,OVC045,0.00,VWS V14.01,2013-04-12 08:21:00,
2013-04-12 03:26:00,37.2,32.5,29.67,WNW,289,3.0,10.0,83,0.00,,OVC045,0.00,VWS V14.01,2013-04-12 08:26:00,
2013-04-12 03:30:00,37.2,32.2,29.67,NW,312,2.0,10.0,82,0.00,,CLR,0.00,VWS V14.01,2013-04-12 08:30:00,
2013-04-12 03:32:00,37.2,32.5,29.67,NW,304,2.0,3.0,83,0.00,,OVC045,0.00,VWS V14.01,2013-04-12 08:32:00,
2013-04-12 03:37:00,37.2,32.5,29.67,WNW,291,5.0,6.0,83,0.00,,OVC045,0.00,VWS V14.01,2013-04-12 08:37:00,
2013-04-12 03:40:00,37.1,32.4,29.67,WNW,294,3.0,8.0,83,0.00,,CLR,0.00,VWS V14.01,2013-04-12 08:40:00,
2013-04-12 03:42:00,37.1,32.4,29.67,WNW,298,1.0,7.0,83,0.00,,OVC047,0.00,VWS V14.01,2013-04-12 08:42:00,
2013-04-12 03:47:00,37.2,32.5,29.67,WSW,250,2.0,7.0,83,0.00,,OVC047,0.00,VWS V14.01,2013-04-12 08:47:00,
2013-04-12 03:50:00,37.2,32.5,29.67,NW,323,1.0,7.0,83,0.00,,CLR,0.00,VWS V14.01,2013-04-12 08:50:00,
2013-04-12 03:52:00,37.1,32.4,29.67,WSW,256,11.0,12.0,83,0.00,,OVC047,0.00,VWS V14.01,2013-04-12 08:52:00,
2013-04-12 03:57:00,37.2,32.5,29.67,WNW,296,1.0,12.0,83,0.00,,OVC047,0.00,VWS V14.01,2013-04-12 08:57:00,
2013-04-12 04:00:00,37.2,32.5,29.67,SW,224,2.0,12.0,83,0.00,,CLR,0.00,VWS V14.01,2013-04-12 09:00:00,
2013-04-12 04:02:00,37.2,32.5,29.67,WNW,291,2.0,6.0,83,0.00,,OVC045,0.00,VWS V14.01,2013-04-12 09:02:00,
2013-04-12 04:07:00,37.2,32.5,29.67,West,277,1.0,11.0,83,0.00,,OVC045,0.00,VWS V14.01,2013-04-12 09:07:00,
2013-04-12 04:10:00,37.2,32.5,29.67,WNW,288,1.0,11.0,83,0.00,,CLR,0.00,VWS V14.01,2013-04-12 09:10:00,
2013-04-12 04:13:00,37.2,32.5,29.67,West,269,6.0,7.0,83,0.00,,OVC045,0.00,VWS V14.01,2013-04-12 09:13:00,
2013-04-12 04:18:00,37.2,32.5,29.66,NW,305,3.0,7.0,83,0.00,,OVC045,0.00,VWS V14.01,2013-04-12 09:18:00,
2013-04-12 04:20:00,37.2,32.5,29.66,WNW,283,3.0,7.0,83,0.00,,CLR,0.00,VWS V14.01,2013-04-12 09:20:00,
2013-04-12 04:23:00,37.2,32.5,29.66,West,281,0.0,6.0,83,0.00,,OVC043,0.00,VWS V14.01,2013-04-12 09:23:00,
2013-04-12 04:28:00,37.2,32.8,29.67,West,273,5.0,6.0,84,0.00,,OVC043,0.00,VWS V14.01,2013-04-12 09:28:00,
2013-04-12 04:30:00,37.2,32.8,29.67,West,271,8.0,8.0,84,0.00,,CLR,0.00,VWS V14.01,2013-04-12 09:30:00,
2013-04-12 04:33:00,37.2,32.8,29.67,West,276,1.0,10.0,84,0.00,,OVC043,0.00,VWS V14.01,2013-04-12 09:33:00,
2013-04-12 04:38:00,37.2,32.8,29.67,WSW,249,10.0,10.0,84,0.00,,OVC043,0.00,VWS V14.01,2013-04-12 09:38:00,
2013-04-12 04:40:00,37.2,32.8,29.67,WSW,249,10.0,10.0,84,0.00,,CLR,0.00,VWS V14.01,2013-04-12 09:40:00,
2013-04-12 04:44:00,37.2,32.8,29.67,WNW,302,2.0,10.0,84,0.00,,OVC045,0.00,VWS V14.01,2013-04-12 09:44:00,
2013-04-12 04:49:00,37.2,32.8,29.67,WNW,303,1.0,3.0,84,0.00,,OVC045,0.00,VWS V14.01,2013-04-12 09:49:00,
2013-04-12 04:50:00,37.2,32.8,29.67,NW,322,3.0,10.0,84,0.00,,CLR,0.00,VWS V14.01,2013-04-12 09:50:00,
2013-04-12 04:54:00,37.2,32.8,29.67,NW,322,2.0,7.0,84,0.00,,OVC045,0.00,VWS V14.01,2013-04-12 09:54:00,
2013-04-12 04:59:00,37.2,32.8,29.66,WSW,257,1.0,3.0,84,0.00,,OVC045,0.00,VWS V14.01,2013-04-12 09:59:00,
2013-04-12 05:00:00,37.2,32.8,29.66,West,276,1.0,7.0,84,0.00,,CLR,0.00,VWS V14.01,2013-04-12 10:00:00,
2013-04-12 05:04:00,37.2,32.8,29.66,West,277,2.0,6.0,84,0.00,,OVC045,0.00,VWS V14.01,2013-04-12 10:04:00,
2013-04-12 05:09:00,37.1,32.7,29.66,WNW,288,5.0,10.0,84,0.00,,OVC045,0.00,VWS V14.01,2013-04-12 10:09:00,
2013-04-12 05:10:00,37.2,32.8,29.66,WNW,290,6.0,14.0,84,0.00,,CLR,0.00,VWS V14.01,2013-04-12 10:10:00,
2013-04-12 05:14:00,37.2,32.8,29.66,NW,319,3.0,10.0,84,0.00,,OVC045,0.00,VWS V14.01,2013-04-12 10:14:00,
2013-04-12 05:20:00,37.2,33.1,29.66,WNW,296,5.0,6.0,85,0.00,,OVC047,0.00,VWS V14.01,2013-04-12 10:20:00,
2013-04-12 05:25:00,37.2,33.1,29.66,WNW,290,7.0,9.0,85,0.00,,OVC047,0.00,VWS V14.01,2013-04-12 10:25:00,
2013-04-12 05:30:00,37.2,33.1,29.66,WSW,257,2.0,3.0,85,0.00,,OVC047,0.00,VWS V14.01,2013-04-12 10:30:00,
2013-04-12 05:35:00,37.1,33.0,29.66,WNW,300,2.0,4.0,85,0.00,,OVC047,0.00,VWS V14.01,2013-04-12 10:35:00,
2013-04-12 05:40:00,37.1,33.0,29.66,WNW,295,2.0,3.0,85,0.00,,OVC047,0.00,VWS V14.01,2013-04-12 10:40:00,
2013-04-12 05:45:00,37.2,33.1,29.66,NW,316,1.0,7.0,85,0.00,,OVC047,0.00,VWS V14.01,2013-04-12 10:45:00,
2013-04-12 05:50:00,37.1,33.0,29.66,West,278,3.0,5.0,85,0.00,,OVC047,0.00,VWS V14.01,2013-04-12 10:50:00,
2013-04-12 05:56:00,37.2,33.1,29.66,WNW,296,3.0,12.0,85,0.00,,OVC047,0.00,VWS V14.01,2013-04-12 10:56:00,
2013-04-12 06:00:00,37.2,33.1,29.66,West,262,1.0,12.0,85,0.00,,CLR,0.00,VWS V14.01,2013-04-12 11:00:00,
2013-04-12 06:01:00,37.2,33.1,29.66,WSW,255,2.0,3.0,85,0.00,,OVC047,0.00,VWS V14.01,2013-04-12 11:01:00,
2013-04-12 06:06:00,37.2,33.1,29.66,WSW,250,5.0,8.0,85,0.00,,OVC047,0.00,VWS V14.01,2013-04-12 11:06:00,
2013-04-12 06:10:00,37.2,33.1,29.66,WSW,256,5.0,8.0,85,0.00,,CLR,0.00,VWS V14.01,2013-04-12 11:10:00,
2013-04-12 06:11:00,37.2,33.1,29.66,WNW,293,4.0,7.0,85,0.00,,OVC047,0.00,VWS V14.01,2013-04-12 11:11:00,
2013-04-12 06:17:00,37.2,33.1,29.66,WSW,257,1.0,7.0,85,0.00,,OVC047,0.00,VWS V14.01,2013-04-12 11:17:00,
2013-04-12 06:20:00,37.2,33.1,29.67,WNW,300,3.0,7.0,85,0.00,,CLR,0.00,VWS V14.01,2013-04-12 11:20:00,
2013-04-12 06:22:00,37.2,33.1,29.67,WNW,287,1.0,7.0,85,0.00,,OVC049,0.00,VWS V14.01,2013-04-12 11:22:00,
2013-04-12 06:27:00,37.2,33.4,29.67,West,263,3.0,7.0,86,0.00,,OVC049,0.00,VWS V14.01,2013-04-12 11:27:00,
2013-04-12 06:30:00,37.3,33.5,29.67,WSW,243,5.0,7.0,86,0.00,,CLR,0.00,VWS V14.01,2013-04-12 11:30:00,
2013-04-12 06:32:00,37.3,33.5,29.67,WSW,237,3.0,9.0,86,0.00,,OVC049,0.00,VWS V14.01,2013-04-12 11:32:00,
2013-04-12 06:37:00,37.3,33.5,29.67,WNW,285,4.0,9.0,86,0.00,,OVC049,0.00,VWS V14.01,2013-04-12 11:37:00,
2013-04-12 06:40:00,37.3,33.5,29.67,West,269,2.0,9.0,86,0.00,,CLR,0.00,VWS V14.01,2013-04-12 11:40:00,
2013-04-12 06:43:00,37.4,33.6,29.67,West,265,2.0,7.0,86,0.00,,OVC050,0.00,VWS V14.01,2013-04-12 11:43:00,
2013-04-12 06:48:00,37.3,33.8,29.68,West,270,1.0,8.0,87,0.00,,OVC050,0.00,VWS V14.01,2013-04-12 11:48:00,
2013-04-12 06:50:00,37.3,33.8,29.68,WNW,283,3.0,8.0,87,0.00,,CLR,0.00,VWS V14.01,2013-04-12 11:50:00,
2013-04-12 06:53:00,37.3,33.8,29.68,West,276,2.0,8.0,87,0.00,,OVC050,0.00,VWS V14.01,2013-04-12 11:53:00,
2013-04-12 06:58:00,37.3,34.1,29.68,West,281,4.0,10.0,88,0.00,,OVC050,0.00,VWS V14.01,2013-04-12 11:58:00,
2013-04-12 07:00:00,37.3,33.8,29.68,West,274,3.0,10.0,87,0.00,,CLR,0.00,VWS V14.01,2013-04-12 12:00:00,
2013-04-12 07:03:00,37.3,33.8,29.68,West,267,3.0,9.0,87,0.00,,OVC050,0.00,VWS V14.01,2013-04-12 12:03:00,
2013-04-12 07:08:00,37.3,33.8,29.68,West,273,2.0,9.0,87,0.00,,OVC050,0.00,VWS V14.01,2013-04-12 12:08:00,
2013-04-12 07:10:00,37.3,33.8,29.68,West,273,2.0,9.0,87,0.00,,CLR,0.00,VWS V14.01,2013-04-12 12:10:00,
2013-04-12 07:14:00,37.4,34.2,29.69,West,274,2.0,7.0,88,0.00,,OVC050,0.00,VWS V14.01,2013-04-12 12:14:00,
2013-04-12 07:19:00,37.4,34.2,29.69,WSW,258,4.0,4.0,88,0.00,,OVC050,0.00,VWS V14.01,2013-04-12 12:19:00,
2013-04-12 07:20:00,37.4,34.2,29.69,West,270,2.0,9.0,88,0.00,,CLR,0.00,VWS V14.01,2013-04-12 12:20:00,
2013-04-12 07:24:00,37.4,34.2,29.69,SW,219,3.0,11.0,88,0.00,,OVC050,0.00,VWS V14.01,2013-04-12 12:24:00,
2013-04-12 07:29:00,37.3,34.4,29.69,WSW,255,5.0,5.0,89,0.00,,OVC050,0.00,VWS V14.01,2013-04-12 12:29:00,
2013-04-12 07:30:00,37.4,34.5,29.69,WSW,245,5.0,11.0,89,0.00,,CLR,0.00,VWS V14.01,2013-04-12 12:30:00,
2013-04-12 07:34:00,37.3,34.4,29.69,WNW,287,5.0,10.0,89,0.00,,OVC050,0.00,VWS V14.01,2013-04-12 12:34:00,
2013-04-12 07:39:00,37.4,34.5,29.70,West,281,4.0,5.0,89,0.00,,OVC018,0.00,VWS V14.01,2013-04-12 12:39:00,
2013-04-12 07:40:00,37.4,34.5,29.70,West,265,2.0,10.0,89,0.00,,CLR,0.00,VWS V14.01,2013-04-12 12:40:00,
2013-04-12 07:45:00,37.4,34.5,29.70,West,259,6.0,7.0,89,0.00,,OVC018,0.00,VWS V14.01,2013-04-12 12:45:00,
2013-04-12 07:50:00,37.4,34.5,29.70,West,263,5.0,11.0,89,0.00,,OVC018,0.00,VWS V14.01,2013-04-12 12:50:00,
2013-04-12 07:55:00,37.4,34.7,29.70,West,262,3.0,11.0,90,0.00,,OVC018,0.00,VWS V14.01,2013-04-12 12:55:00,
2013-04-12 08:00:00,37.3,34.6,29.70,WNW,285,3.0,5.0,90,0.00,,OVC020,0.00,VWS V14.01,2013-04-12 13:00:00,
2013-04-12 08:05:00,37.3,34.6,29.70,WNW,283,3.0,10.0,90,0.00,,OVC020,0.00,VWS V14.01,2013-04-12 13:05:00,
2013-04-12 08:10:00,37.3,34.6,29.70,West,263,1.0,4.0,90,0.00,,OVC020,0.00,VWS V14.01,2013-04-12 13:10:00,
2013-04-12 08:15:00,37.4,35.0,29.71,WNW,288,3.0,4.0,91,0.00,,OVC020,0.00,VWS V14.01,2013-04-12 13:15:00,
2013-04-12 08:20:00,37.5,34.8,29.71,WNW,295,3.0,4.0,90,0.00,,CLR,0.00,VWS V14.01,2013-04-12 13:20:00,
2013-04-12 08:21:00,37.6,34.9,29.71,WNW,285,2.0,3.0,90,0.00,,-RA,0.00,VWS V14.01,2013-04-12 13:21:00,
2013-04-12 08:26:00,37.7,34.8,29.71,West,280,3.0,11.0,89,0.00,,-RA,0.00,VWS V14.01,2013-04-12 13:26:00,
2013-04-12 08:30:00,37.8,34.9,29.71,WSW,243,6.0,11.0,89,0.00,,CLR,0.00,VWS V14.01,2013-04-12 13:30:00,
2013-04-12 08:32:00,37.9,34.7,29.71,WNW,298,5.0,8.0,88,0.00,,-RA,0.00,VWS V14.01,2013-04-12 13:32:00,
2013-04-12 08:37:00,38.0,34.8,29.71,WSW,243,1.0,8.0,88,0.00,,-RA,0.00,VWS V14.01,2013-04-12 13:37:00,
2013-04-12 08:40:00,38.1,34.9,29.71,WSW,240,2.0,10.0,88,0.00,,CLR,0.00,VWS V14.01,2013-04-12 13:40:00,
2013-04-12 08:42:00,38.1,34.6,29.71,WNW,301,2.0,13.0,87,0.00,,OVC022,0.00,VWS V14.01,2013-04-12 13:42:00,
2013-04-12 08:47:00,38.3,34.8,29.71,NW,313,4.0,13.0,87,0.00,,OVC022,0.00,VWS V14.01,2013-04-12 13:47:00,
2013-04-12 08:50:00,38.3,34.5,29.71,West,278,4.0,13.0,86,0.00,,CLR,0.00,VWS V14.01,2013-04-12 13:50:00,
2013-04-12 08:52:00,38.4,34.6,29.71,WSW,254,7.0,11.0,86,0.00,,OVC022,0.00,VWS V14.01,2013-04-12 13:52:00,
2013-04-12 08:57:00,38.4,34.6,29.71,West,269,4.0,11.0,86,0.00,,OVC022,0.00,VWS V14.01,2013-04-12 13:57:00,
2013-04-12 09:00:00,38.4,34.6,29.71,WNW,298,8.0,13.0,86,0.00,,CLR,0.00,VWS V14.01,2013-04-12 14:00:00,
2013-04-12 09:02:00,38.5,34.7,29.71,West,262,4.0,12.0,86,0.00,,OVC018,0.00,VWS V14.01,2013-04-12 14:02:00,
2013-04-12 09:07:00,38.5,34.7,29.71,WSW,252,5.0,12.0,86,0.00,,OVC018,0.00,VWS V14.01,2013-04-12 14:07:00,
2013-04-12 09:10:00,38.5,34.7,29.71,SSW,205,2.0,12.0,86,0.00,,CLR,0.00,VWS V14.01,2013-04-12 14:10:00,
2013-04-12 09:13:00,38.5,34.4,29.71,WNW,285,1.0,5.0,85,0.00,,OVC018,0.00,VWS V14.01,2013-04-12 14:13:00,
2013-04-12 09:18:00,38.6,34.5,29.71,SW,233,4.0,12.0,85,0.00,,OVC018,0.00,VWS V14.01,2013-04-12 14:18:00,
2013-04-12 09:20:00,38.6,34.5,29.71,West,266,2.0,12.0,85,0.00,,CLR,0.00,VWS V14.01,2013-04-12 14:20:00,
2013-04-12 09:23:00,38.5,34.4,29.71,NW,325,4.0,10.0,85,0.00,,OVC020,0.00,VWS V14.01,2013-04-12 14:23:00,
2013-04-12 09:28:00,38.6,34.8,29.71,WNW,287,2.0,10.0,86,0.00,,OVC020,0.00,VWS V14.01,2013-04-12 14:28:00,
2013-04-12 09:30:00,38.6,34.8,29.72,WNW,297,1.0,10.0,86,0.00,,CLR,0.00,VWS V14.01,2013-04-12 14:30:00,
2013-04-12 09:33:00,38.7,34.6,29.72,WNW,284,5.0,10.0,85,0.00,,OVC020,0.00,VWS V14.01,2013-04-12 14:33:00,
2013-04-12 09:38:00,38.8,34.7,29.71,NW,308,3.0,17.0,85,0.00,,OVC020,0.00,VWS V14.01,2013-04-12 14:38:00,
2013-04-12 09:40:00,38.8,34.7,29.71,NW,308,1.0,17.0,85,0.00,,CLR,0.00,VWS V14.01,2013-04-12 14:40:00,
2013-04-12 09:43:00,38.9,34.5,29.71,WNW,291,8.0,10.0,84,0.00,,OVC020,0.00,VWS V14.01,2013-04-12 14:43:00,
2013-04-12 09:48:00,39.1,35.0,29.72,SW,229,3.0,10.0,85,0.00,,OVC020,0.00,VWS V14.01,2013-04-12 14:48:00,
2013-04-12 09:50:00,39.1,35.0,29.72,SW,229,3.0,10.0,85,0.00,,CLR,0.00,VWS V14.01,2013-04-12 14:50:00,
2013-04-12 09:53:00,39.3,35.2,29.72,WNW,291,6.0,11.0,85,0.00,,OVC020,0.00,VWS V14.01,2013-04-12 14:53:00,
2013-04-12 09:58:00,39.3,34.9,29.72,West,281,8.0,11.0,84,0.00,,OVC020,0.00,VWS V14.01,2013-04-12 14:58:00,
2013-04-12 10:00:00,39.3,34.9,29.72,West,281,8.0,11.0,84,0.00,,CLR,0.00,VWS V14.01,2013-04-12 15:00:00,
2013-04-12 10:03:00,39.2,34.8,29.72,WNW,300,4.0,10.0,84,0.00,,OVC020,0.00,VWS V14.01,2013-04-12 15:03:00,
2013-04-12 10:08:00,39.1,35.3,29.72,WNW,285,3.0,3.0,86,0.00,,OVC020,0.00,VWS V14.01,2013-04-12 15:08:00,
2013-04-12 10:10:00,39.2,35.4,29.72,West,278,3.0,15.0,86,0.00,,CLR,0.00,VWS V14.01,2013-04-12 15:10:00,
2013-04-12 10:14:00,39.2,35.1,29.73,WNW,300,3.0,11.0,85,0.00,,OVC020,0.00,VWS V14.01,2013-04-12 15:14:00,
2013-04-12 10:19:00,39.3,35.5,29.73,NW,311,5.0,13.0,86,0.00,,OVC020,0.00,VWS V14.01,2013-04-12 15:19:00,
2013-04-12 10:20:00,39.3,35.5,29.73,WNW,284,3.0,11.0,86,0.00,,CLR,0.00,VWS V14.01,2013-04-12 15:20:00,
2013-04-12 10:24:00,39.2,35.7,29.73,North,8,1.0,13.0,87,0.00,,OVC023,0.00,VWS V14.01,2013-04-12 15:24:00,
2013-04-12 10:29:00,39.3,35.8,29.73,WNW,293,7.0,8.0,87,0.00,,OVC023,0.00,VWS V14.01,2013-04-12 15:29:00,
2013-04-12 10:30:00,39.3,35.8,29.73,NNW,327,3.0,13.0,87,0.00,,CLR,0.00,VWS V14.01,2013-04-12 15:30:00,
2013-04-12 10:34:00,39.1,35.6,29.73,West,281,5.0,17.0,87,0.00,,OVC023,0.00,VWS V14.01,2013-04-12 15:34:00,
2013-04-12 10:39:00,39.0,35.8,29.74,West,267,4.0,6.0,88,0.00,,OVC023,0.00,VWS V14.01,2013-04-12 15:39:00,
2013-04-12 10:40:00,39.1,35.8,29.74,WNW,297,4.0,17.0,88,0.00,,CLR,0.00,VWS V14.01,2013-04-12 15:40:00,
2013-04-12 10:45:00,38.9,35.9,29.74,WNW,288,4.0,10.0,89,0.00,,,0.00,VWS V14.01,2013-04-12 15:45:00,
2013-04-12 10:50:00,38.8,35.8,29.74,West,274,3.0,11.0,89,0.00,,,0.00,VWS V14.01,2013-04-12 15:50:00,
2013-04-12 10:55:00,38.8,36.1,29.75,West,259,2.0,11.0,90,0.00,,,0.00,VWS V14.01,2013-04-12 15:55:00,
2013-04-12 11:00:00,38.6,36.2,29.75,SW,233,6.0,8.0,91,0.00,,,0.00,VWS V14.01,2013-04-12 16:00:00,
2013-04-12 11:05:00,38.3,35.9,29.75,West,278,5.0,11.0,91,0.00,,,0.00,VWS V14.01,2013-04-12 16:05:00,
2013-04-12 11:10:00,38.3,36.2,29.75,WNW,285,3.0,11.0,92,0.00,,CLR,0.00,VWS V14.01,2013-04-12 16:10:00,
2013-04-12 11:11:00,38.2,36.1,29.75,West,263,6.0,6.0,92,0.00,,,0.00,VWS V14.01,2013-04-12 16:11:00,
2013-04-12 11:16:00,38.2,36.1,29.75,West,274,3.0,11.0,92,0.00,,,0.00,VWS V14.01,2013-04-12 16:16:00,
2013-04-12 11:20:00,38.2,36.1,29.75,NW,309,3.0,11.0,92,0.00,,CLR,0.00,VWS V14.01,2013-04-12 16:20:00,
2013-04-12 11:21:00,38.3,36.2,29.75,WSW,250,5.0,9.0,92,0.00,,RA,0.00,VWS V14.01,2013-04-12 16:21:00,
2013-04-12 11:26:00,38.3,36.2,29.76,SW,236,4.0,14.0,92,0.00,,RA,0.00,VWS V14.01,2013-04-12 16:26:00,
2013-04-12 11:30:00,38.3,36.2,29.76,WNW,302,4.0,14.0,92,0.00,,CLR,0.00,VWS V14.01,2013-04-12 16:30:00,
2013-04-12 11:31:00,38.4,36.3,29.76,West,277,4.0,12.0,92,0.00,,RA,0.00,VWS V14.01,2013-04-12 16:31:00,
2013-04-12 11:36:00,38.6,36.5,29.76,West,259,3.0,12.0,92,0.00,,RA,0.00,VWS V14.01,2013-04-12 16:36:00,
2013-04-12 11:40:00,38.6,36.5,29.76,West,278,1.0,12.0,92,0.00,,CLR,0.00,VWS V14.01,2013-04-12 16:40:00,
2013-04-12 11:42:00,38.5,36.4,29.76,West,276,2.0,13.0,92,0.00,,RA,0.00,VWS V14.01,2013-04-12 16:42:00,
2013-04-12 11:47:00,38.4,36.3,29.76,West,276,5.0,14.0,92,0.00,,RA,0.00,VWS V14.01,2013-04-12 16:47:00,
2013-04-12 11:50:00,38.4,36.3,29.76,West,265,5.0,14.0,92,0.00,,CLR,0.00,VWS V14.01,2013-04-12 16:50:00,
2013-04-12 11:52:00,38.4,36.3,29.76,WSW,253,4.0,11.0,92,0.00,,RA,0.00,VWS V14.01,2013-04-12 16:52:00,
2013-04-12 11:57:00,38.4,36.3,29.76,WNW,300,2.0,11.0,92,0.00,,RA,0.00,VWS V14.01,2013-04-12 16:57:00,
2013-04-12 12:00:00,38.5,36.4,29.76,WNW,290,3.0,11.0,92,0.00,,CLR,0.00,VWS V14.01,2013-04-12 17:00:00,
2013-04-12 12:02:00,38.7,36.6,29.77,NW,304,5.0,11.0,92,0.00,,OVC017,0.00,VWS V14.01,2013-04-12 17:02:00,
2013-04-12 12:07:00,38.8,36.7,29.76,SW,229,3.0,11.0,92,0.00,,OVC017,0.00,VWS V14.01,2013-04-12 17:07:00,
2013-04-12 12:10:00,38.9,36.8,29.76,NNW,336,1.0,11.0,92,0.00,,CLR,0.00,VWS V14.01,2013-04-12 17:10:00,
2013-04-12 12:12:00,39.0,36.6,29.77,WNW,295,3.0,12.0,91,0.00,,OVC017,0.00,VWS V14.01,2013-04-12 17:12:00,
2013-04-12 12:18:00,39.2,36.8,29.77,West,273,3.0,12.0,91,0.00,,OVC017,0.00,VWS V14.01,2013-04-12 17:18:00,
2013-04-12 12:20:00,39.2,36.8,29.77,West,264,8.0,12.0,91,0.00,,CLR,0.00,VWS V14.01,2013-04-12 17:20:00,
2013-04-12 12:23:00,39.3,36.6,29.77,WNW,296,4.0,9.0,90,0.00,,OVC021,0.00,VWS V14.01,2013-04-12 17:23:00,
2013-04-12 12:28:00,39.5,36.8,29.77,WNW,284,2.0,10.0,90,0.00,,OVC021,0.00,VWS V14.01,2013-04-12 17:28:00,
2013-04-12 12:30:00,39.5,36.8,29.77,NW,319,3.0,10.0,90,0.00,,CLR,0.00,VWS V14.01,2013-04-12 17:30:00,
2013-04-12 12:33:00,39.8,37.1,29.77,WNW,287,3.0,7.0,90,0.00,,OVC021,0.00,VWS V14.01,2013-04-12 17:33:00,
2013-04-12 12:38:00,40.0,37.0,29.77,NW,319,4.0,14.0,89,0.00,,OVC021,0.00,VWS V14.01,2013-04-12 17:38:00,
2013-04-12 12:40:00,40.0,37.0,29.77,NW,319,4.0,14.0,89,0.00,,CLR,0.00,VWS V14.01,2013-04-12 17:40:00,
2013-04-12 12:43:00,40.1,36.8,29.78,WSW,248,5.0,10.0,88,0.00,,OVC016,0.00,VWS V14.01,2013-04-12 17:43:00,
2013-04-12 12:48:00,40.1,36.5,29.78,NW,316,1.0,5.0,87,0.00,,OVC016,0.00,VWS V14.01,2013-04-12 17:48:00,
2013-04-12 12:50:00,40.1,36.5,29.78,NW,319,4.0,12.0,87,0.00,,CLR,0.00,VWS V14.01,2013-04-12 17:50:00,
2013-04-12 12:54:00,40.1,36.5,29.78,West,276,5.0,16.0,87,0.00,,OVC016,0.00,VWS V14.01,2013-04-12 17:54:00,
2013-04-12 12:59:00,40.3,36.8,29.78,NNW,331,2.0,4.0,87,0.00,,OVC016,0.00,VWS V14.01,2013-04-12 17:59:00,
2013-04-12 13:00:00,40.3,36.8,29.78,NW,321,2.0,16.0,87,0.00,,CLR,0.00,VWS V14.01,2013-04-12 18:00:00,
2013-04-12 13:05:00,40.5,36.7,29.79,SW,223,2.0,10.0,86,0.00,,OVC016,0.00,VWS V14.01,2013-04-12 18:05:00,
2013-04-12 13:10:00,40.5,36.9,29.79,NW,308,4.0,7.0,87,0.00,,OVC016,0.00,VWS V14.01,2013-04-12 18:10:00,
2013-04-12 13:18:00,40.4,36.5,29.79,WNW,303,2.0,10.0,86,0.00,,OVC016,0.00,VWS V14.01,2013-04-12 18:18:00,
2013-04-12 13:20:00,40.4,36.5,29.79,WNW,303,2.0,10.0,86,0.00,,CLR,0.00,VWS V14.01,2013-04-12 18:20:00,
2013-04-12 13:23:00,40.5,36.7,29.79,WNW,287,5.0,6.0,86,0.00,,OVC018,0.00,VWS V14.01,2013-04-12 18:23:00,
2013-04-12 13:29:00,40.6,36.8,29.79,NW,307,4.0,4.0,86,0.00,,OVC018,0.00,VWS V14.01,2013-04-12 18:29:00,
2013-04-12 13:30:00,40.6,36.8,29.79,West,274,1.0,12.0,86,0.00,,CLR,0.00,VWS V14.01,2013-04-12 18:30:00,
2013-04-12 13:40:00,40.8,36.7,29.79,NW,312,5.0,12.0,85,0.00,,CLR,0.00,VWS V14.01,2013-04-12 18:40:00,
2013-04-12 13:50:00,41.1,36.9,29.80,NNW,344,2.0,9.0,85,0.00,,CLR,0.00,VWS V14.01,2013-04-12 18:50:00,
2013-04-12 14:00:00,41.7,37.2,29.80,West,271,3.0,8.0,84,0.00,,CLR,0.00,VWS V14.01,2013-04-12 19:00:00,
2013-04-12 14:10:00,41.6,37.1,29.81,NW,312,4.0,15.0,84,0.00,,CLR,0.00,VWS V14.01,2013-04-12 19:10:00,
2013-04-12 14:20:00,41.4,36.9,29.81,WNW,288,5.0,15.0,84,0.00,,CLR,0.00,VWS V14.01,2013-04-12 19:20:00,
2013-04-12 14:26:00,41.3,37.1,29.81,West,281,9.0,12.0,85,0.00,,OVC035,0.00,VWS V14.01,2013-04-12 19:26:00,
2013-04-12 14:27:00,41.3,36.8,29.82,West,267,4.0,12.0,84,0.00,,OVC035,0.00,VWS V14.01,2013-04-12 19:27:00,
2013-04-12 14:28:00,41.3,36.8,29.82,West,274,2.0,12.0,84,0.00,,OVC035,0.00,VWS V14.01,2013-04-12 19:28:00,
2013-04-12 14:29:00,41.3,37.1,29.82,WNW,303,5.0,5.0,85,0.00,,OVC035,0.00,VWS V14.01,2013-04-12 19:29:00,
2013-04-12 14:30:00,41.3,36.8,29.82,WNW,284,3.0,12.0,84,0.00,,CLR,0.00,VWS V14.01,2013-04-12 19:30:00,
2013-04-12 14:34:00,41.4,36.9,29.82,WSW,250,9.0,10.0,84,0.00,,OVC035,0.00,VWS V14.01,2013-04-12 19:34:00,
2013-04-12 14:39:00,41.7,36.9,29.82,NW,309,5.0,11.0,83,0.00,,OVC035,0.00,VWS V14.01,2013-04-12 19:39:00,
2013-04-12 14:40:00,41.6,36.8,29.82,NW,308,5.0,10.0,83,0.00,,CLR,0.00,VWS V14.01,2013-04-12 19:40:00,
2013-04-12 14:44:00,41.8,36.4,29.82,West,269,3.0,11.0,81,0.00,,OVC034,0.00,VWS V14.01,2013-04-12 19:44:00,
2013-04-12 14:50:00,41.9,36.5,29.83,NNE,16,4.0,4.0,81,0.00,,OVC034,0.00,VWS V14.01,2013-04-12 19:50:00,
2013-04-12 14:55:00,42.2,36.5,29.83,NNW,331,7.0,9.0,80,0.00,,OVC034,0.00,VWS V14.01,2013-04-12 19:55:00,
2013-04-12 15:00:00,42.2,35.5,29.83,WNW,283,8.0,8.0,77,0.00,,OVC034,0.00,VWS V14.01,2013-04-12 20:00:00,
2013-04-12 15:05:00,42.3,35.9,29.83,WNW,290,2.0,8.0,78,0.00,,OVC034,0.00,VWS V14.01,2013-04-12 20:05:00,
2013-04-12 15:10:00,42.4,36.0,29.83,NW,309,2.0,3.0,78,0.00,,OVC034,0.00,VWS V14.01,2013-04-12 20:10:00,
2013-04-12 15:15:00,42.3,35.9,29.83,West,265,3.0,10.0,78,0.00,,OVC034,0.00,VWS V14.01,2013-04-12 20:15:00,
2013-04-12 15:20:00,42.2,35.5,29.83,NNW,339,3.0,7.0,77,0.00,,OVC036,0.00,VWS V14.01,2013-04-12 20:20:00,
2013-04-12 15:27:00,41.9,35.2,29.83,WNW,289,8.0,10.0,77,0.00,,OVC036,0.00,VWS V14.01,2013-04-12 20:27:00,
2013-04-12 15:30:00,41.9,35.2,29.84,NW,304,5.0,10.0,77,0.00,,CLR,0.00,VWS V14.01,2013-04-12 20:30:00,
2013-04-12 15:32:00,41.9,35.2,29.84,NW,320,7.0,7.0,77,0.00,,OVC036,0.00,VWS V14.01,2013-04-12 20:32:00,
2013-04-12 15:37:00,42.0,35.3,29.84,NW,307,5.0,7.0,77,0.00,,OVC036,0.00,VWS V14.01,2013-04-12 20:37:00,
2013-04-12 15:40:00,42.1,35.4,29.84,NW,304,6.0,9.0,77,0.00,,CLR,0.00,VWS V14.01,2013-04-12 20:40:00,
2013-04-12 15:42:00,42.1,35.4,29.84,NW,307,5.0,11.0,77,0.00,,OVC036,0.00,VWS V14.01,2013-04-12 20:42:00,
2013-04-12 15:47:00,42.0,35.3,29.85,NW,307,3.0,11.0,77,0.00,,OVC036,0.00,VWS V14.01,2013-04-12 20:47:00,
2013-04-12 15:50:00,42.0,35.3,29.85,NNW,334,3.0,11.0,77,0.00,,CLR,0.00,VWS V14.01,2013-04-12 20:50:00,
2013-04-12 15:53:00,42.0,35.3,29.85,NW,322,6.0,7.0,77,0.00,,OVC036,0.00,VWS V14.01,2013-04-12 20:53:00,
2013-04-12 15:58:00,41.9,35.2,29.85,NW,316,3.0,7.0,77,0.00,,OVC036,0.00,VWS V14.01,2013-04-12 20:58:00,
2013-04-12 16:00:00,41.9,35.2,29.85,WNW,288,5.0,7.0,77,0.00,,CLR,0.00,VWS V14.01,2013-04-12 21:00:00,
2013-04-12 16:03:00,41.8,35.1,29.85,West,260,3.0,13.0,77,0.00,,OVC036,0.00,VWS V14.01,2013-04-12 21:03:00,
2013-04-12 16:08:00,41.7,34.7,29.85,NW,307,7.0,13.0,76,0.00,,OVC036,0.00,VWS V14.01,2013-04-12 21:08:00,
2013-04-12 16:10:00,41.7,34.7,29.85,NNW,328,7.0,13.0,76,0.00,,CLR,0.00,VWS V14.01,2013-04-12 21:10:00,
2013-04-12 16:13:00,41.6,34.3,29.85,WNW,285,3.0,13.0,75,0.00,,OVC036,0.00,VWS V14.01,2013-04-12 21:13:00,
2013-04-12 16:18:00,41.7,34.4,29.86,WNW,283,1.0,13.0,75,0.00,,OVC036,0.00,VWS V14.01,2013-04-12 21:18:00,
2013-04-12 16:20:00,41.7,34.4,29.86,WNW,285,1.0,13.0,75,0.00,,CLR,0.00,VWS V14.01,2013-04-12 21:20:00,
2013-04-12 16:23:00,41.9,34.2,29.85,NW,319,7.0,10.0,74,0.00,,OVC037,0.00,VWS V14.01,2013-04-12 21:23:00,
2013-04-12 16:29:00,42.0,34.3,29.86,North,9,8.0,8.0,74,0.00,,OVC037,0.00,VWS V14.01,2013-04-12 21:29:00,
2013-04-12 16:30:00,42.0,34.3,29.86,NNW,327,4.0,10.0,74,0.00,,CLR,0.00,VWS V14.01,2013-04-12 21:30:00,
2013-04-12 16:34:00,42.0,34.7,29.86,WNW,292,1.0,14.0,75,0.00,,OVC037,0.00,VWS V14.01,2013-04-12 21:34:00,
2013-04-12 16:39:00,42.1,34.8,29.86,NNW,328,4.0,6.0,75,0.00,,OVC037,0.00,VWS V14.01,2013-04-12 21:39:00,
2013-04-12 16:40:00,42.1,35.1,29.86,NW,318,6.0,14.0,76,0.00,,CLR,0.00,VWS V14.01,2013-04-12 21:40:00,
2013-04-12 16:44:00,42.0,34.7,29.86,NW,305,3.0,11.0,75,0.00,,OVC036,0.00,VWS V14.01,2013-04-12 21:44:00,
2013-04-12 16:49:00,42.0,34.7,29.87,NW,318,4.0,4.0,75,0.00,,OVC036,0.00,VWS V14.01,2013-04-12 21:49:00,
2013-04-12 16:50:00,41.9,34.6,29.87,WNW,302,2.0,11.0,75,0.00,,CLR,0.00,VWS V14.01,2013-04-12 21:50:00,
2013-04-12 16:54:00,42.0,34.3,29.87,NNW,337,4.0,12.0,74,0.00,,OVC036,0.00,VWS V14.01,2013-04-12 21:54:00,
2013-04-12 17:00:00,42.1,34.4,29.88,NNW,327,8.0,8.0,74,0.00,,OVC040,0.00,VWS V14.01,2013-04-12 22:00:00,
2013-04-12 17:05:00,42.2,34.9,29.88,WNW,283,6.0,9.0,75,0.00,,OVC040,0.00,VWS V14.01,2013-04-12 22:05:00,
2013-04-12 17:10:00,42.2,34.5,29.88,WNW,295,5.0,7.0,74,0.00,,OVC040,0.00,VWS V14.01,2013-04-12 22:10:00,
2013-04-12 17:15:00,42.2,34.5,29.88,North,4,4.0,9.0,74,0.00,,OVC040,0.00,VWS V14.01,2013-04-12 22:15:00,
2013-04-12 17:20:00,42.1,34.4,29.88,NW,316,3.0,9.0,74,0.00,,OVC038,0.00,VWS V14.01,2013-04-12 22:20:00,
2013-04-12 17:25:00,42.1,34.4,29.89,WNW,293,2.0,9.0,74,0.00,,OVC038,0.00,VWS V14.01,2013-04-12 22:25:00,
2013-04-12 17:30:00,42.1,34.8,29.89,WNW,289,2.0,9.0,75,0.00,,CLR,0.00,VWS V14.01,2013-04-12 22:30:00,
2013-04-12 17:31:00,42.0,34.3,29.89,WNW,297,4.0,9.0,74,0.00,,OVC038,0.00,VWS V14.01,2013-04-12 22:31:00,
2013-04-12 17:36:00,41.9,34.2,29.89,North,356,2.0,9.0,74,0.00,,OVC038,0.00,VWS V14.01,2013-04-12 22:36:00,
2013-04-12 17:40:00,41.9,34.2,29.89,NW,312,4.0,9.0,74,0.00,,CLR,0.00,VWS V14.01,2013-04-12 22:40:00,
2013-04-12 17:41:00,42.0,34.0,29.89,WNW,294,3.0,7.0,73,0.00,,OVC045,0.00,VWS V14.01,2013-04-12 22:41:00,
2013-04-12 17:47:00,42.0,34.0,29.89,NW,310,5.0,9.0,73,0.00,,OVC045,0.00,VWS V14.01,2013-04-12 22:47:00,
2013-04-12 17:50:00,42.0,34.0,29.89,WSW,253,3.0,9.0,73,0.00,,CLR,0.00,VWS V14.01,2013-04-12 22:50:00,
2013-04-12 17:52:00,42.0,34.0,29.89,NW,312,4.0,8.0,73,0.00,,OVC045,0.00,VWS V14.01,2013-04-12 22:52:00,
2013-04-12 17:57:00,42.0,34.3,29.89,NW,326,2.0,8.0,74,0.00,,OVC045,0.00,VWS V14.01,2013-04-12 22:57:00,
2013-04-12 18:00:00,42.0,34.3,29.90,WNW,283,2.0,8.0,74,0.00,,CLR,0.00,VWS V14.01,2013-04-12 23:00:00,
2013-04-12 18:02:00,42.0,34.3,29.90,WNW,291,4.0,6.0,74,0.00,,OVC045,0.00,VWS V14.01,2013-04-12 23:02:00,
2013-04-12 18:08:00,42.0,34.3,29.89,WNW,298,2.0,8.0,74,0.00,,OVC045,0.00,VWS V14.01,2013-04-12 23:08:00,
2013-04-12 18:10:00,41.9,34.6,29.89,NW,312,5.0,8.0,75,0.00,,CLR,0.00,VWS V14.01,2013-04-12 23:10:00,
2013-04-12 18:13:00,41.9,34.2,29.90,NW,307,2.0,7.0,74,0.00,,OVC045,0.00,VWS V14.01,2013-04-12 23:13:00,
2013-04-12 18:18:00,41.9,34.6,29.90,WNW,297,5.0,7.0,75,0.00,,OVC045,0.00,VWS V14.01,2013-04-12 23:18:00,
2013-04-12 18:20:00,41.9,34.6,29.90,NW,319,3.0,7.0,75,0.00,,CLR,0.00,VWS V14.01,2013-04-12 23:20:00,
2013-04-12 18:23:00,41.9,34.6,29.90,West,276,3.0,8.0,75,0.00,,OVC049,0.00,VWS V14.01,2013-04-12 23:23:00,
2013-04-12 18:28:00,41.9,34.6,29.90,North,354,2.0,8.0,75,0.00,,OVC049,0.00,VWS V14.01,2013-04-12 23:28:00,
2013-04-12 18:30:00,41.9,34.6,29.90,NNW,330,2.0,8.0,75,0.00,,CLR,0.00,VWS V14.01,2013-04-12 23:30:00,
2013-04-12 18:33:00,41.9,34.6,29.90,NW,322,4.0,7.0,75,0.00,,OVC049,0.00,VWS V14.01,2013-04-12 23:33:00,
2013-04-12 18:38:00,41.9,34.6,29.90,WNW,303,4.0,4.0,75,0.00,,OVC049,0.00,VWS V14.01,2013-04-12 23:38:00,
2013-04-12 18:40:00,41.9,34.6,29.90,WNW,295,3.0,7.0,75,0.00,,CLR,0.00,VWS V14.01,2013-04-12 23:40:00,
2013-04-12 18:44:00,41.9,34.6,29.90,NW,312,2.0,5.0,75,0.00,,OVC045,0.00,VWS V14.01,2013-04-12 23:44:00,
2013-04-12 18:49:00,41.9,34.6,29.90,WNW,296,2.0,3.0,75,0.00,,OVC045,0.00,VWS V14.01,2013-04-12 23:49:00,
2013-04-12 18:50:00,41.8,34.5,29.90,NW,307,3.0,5.0,75,0.00,,CLR,0.00,VWS V14.01,2013-04-12 23:50:00,
2013-04-12 18:54:00,41.8,34.5,29.90,WNW,302,4.0,5.0,75,0.00,,OVC045,0.00,VWS V14.01,2013-04-12 23:54:00,
2013-04-12 18:59:00,41.8,34.5,29.90,WNW,293,2.0,5.0,75,0.00,,OVC045,0.00,VWS V14.01,2013-04-12 23:59:00,
2013-04-12 19:00:00,41.8,34.5,29.90,West,271,1.0,6.0,75,0.00,,CLR,0.00,VWS V14.01,2013-04-13 00:00:00,
2013-04-12 19:04:00,41.7,34.7,29.90,West,277,1.0,5.0,76,0.00,,OVC048,0.00,VWS V14.01,2013-04-13 00:04:00,
2013-04-12 19:09:00,41.7,34.7,29.90,NW,306,2.0,3.0,76,0.00,,OVC048,0.00,VWS V14.01,2013-04-13 00:09:00,
2013-04-12 19:10:00,41.6,34.6,29.90,NW,312,2.0,5.0,76,0.00,,CLR,0.00,VWS V14.01,2013-04-13 00:10:00,
2013-04-12 19:14:00,41.6,34.6,29.90,NW,308,2.0,5.0,76,0.00,,OVC048,0.00,VWS V14.01,2013-04-13 00:14:00,
2013-04-12 19:20:00,41.6,34.6,29.90,NW,326,3.0,4.0,76,0.00,,OVC048,0.00,VWS V14.01,2013-04-13 00:20:00,
2013-04-12 19:25:00,41.6,34.6,29.90,NNW,329,3.0,5.0,76,0.00,,OVC048,0.00,VWS V14.01,2013-04-13 00:25:00,
2013-04-12 19:30:00,41.6,34.3,29.90,NW,312,3.0,5.0,75,0.00,,OVC048,0.00,VWS V14.01,2013-04-13 00:30:00,
2013-04-12 19:35:00,41.6,34.3,29.91,NW,307,4.0,7.0,75,0.00,,OVC048,0.00,VWS V14.01,2013-04-13 00:35:00,
2013-04-12 19:40:00,41.6,34.3,29.90,WNW,287,1.0,4.0,75,0.00,,OVC050,0.00,VWS V14.01,2013-04-13 00:40:00,
2013-04-12 19:45:00,41.5,34.2,29.90,WNW,287,3.0,6.0,75,0.00,,OVC050,0.00,VWS V14.01,2013-04-13 00:45:00,
2013-04-12 19:50:00,41.5,34.2,29.90,NNW,336,6.0,10.0,75,0.00,,OVC050,0.00,VWS V14.01,2013-04-13 00:50:00,
2013-04-12 19:55:00,41.5,34.5,29.91,WNW,287,1.0,10.0,76,0.00,,OVC050,0.00,VWS V14.01,2013-04-13 00:55:00,
2013-04-12 20:00:00,41.4,34.1,29.91,NW,311,3.0,5.0,75,0.00,,OVC048,0.00,VWS V14.01,2013-04-13 01:00:00,
2013-04-12 20:06:00,41.5,34.2,29.91,NW,319,3.0,8.0,75,0.00,,OVC048,0.00,VWS V14.01,2013-04-13 01:06:00,
2013-04-12 20:10:00,41.5,34.2,29.91,WNW,298,2.0,8.0,75,0.00,,CLR,0.00,VWS V14.01,2013-04-13 01:10:00,
2013-04-12 20:11:00,41.5,34.2,29.91,NW,305,3.0,4.0,75,0.00,,OVC048,0.00,VWS V14.01,2013-04-13 01:11:00,
2013-04-12 20:16:00,41.4,34.4,29.91,West,270,3.0,5.0,76,0.00,,OVC048,0.00,VWS V14.01,2013-04-13 01:16:00,
2013-04-12 20:20:00,41.4,34.4,29.91,NW,307,2.0,5.0,76,0.00,,CLR,0.00,VWS V14.01,2013-04-13 01:20:00,
2013-04-12 20:21:00,41.3,34.3,29.91,NW,309,1.0,4.0,76,0.00,,OVC045,0.00,VWS V14.01,2013-04-13 01:21:00,
2013-04-12 20:26:00,41.3,34.7,29.92,NW,309,2.0,4.0,77,0.00,,OVC045,0.00,VWS V14.01,2013-04-13 01:26:00,
2013-04-12 20:30:00,41.3,34.7,29.92,WNW,284,1.0,4.0,77,0.00,,CLR,0.00,VWS V14.01,2013-04-13 01:30:00,
2013-04-12 20:31:00,41.3,34.7,29.92,WNW,290,1.0,3.0,77,0.00,,OVC045,0.00,VWS V14.01,2013-04-13 01:31:00,
2013-04-12 20:37:00,41.2,34.9,29.92,WNW,291,2.0,3.0,78,0.00,,OVC045,0.00,VWS V14.01,2013-04-13 01:37:00,
2013-04-12 20:40:00,41.2,34.9,29.92,NW,307,1.0,3.0,78,0.00,,CLR,0.00,VWS V14.01,2013-04-13 01:40:00,
2013-04-12 20:42:00,41.2,34.9,29.92,West,281,1.0,2.0,78,0.00,,OVC043,0.00,VWS V14.01,2013-04-13 01:42:00,
2013-04-12 20:47:00,41.2,34.9,29.92,WNW,288,1.0,5.0,78,0.00,,OVC043,0.00,VWS V14.01,2013-04-13 01:47:00,
2013-04-12 20:50:00,41.2,34.9,29.92,WNW,283,2.0,5.0,78,0.00,,CLR,0.00,VWS V14.01,2013-04-13 01:50:00,
2013-04-12 20:52:00,41.2,34.9,29.93,WNW,296,4.0,7.0,78,0.00,,OVC043,0.00,VWS V14.01,2013-04-13 01:52:00,
2013-04-12 20:57:00,41.2,35.2,29.93,WNW,291,1.0,7.0,79,0.00,,OVC043,0.00,VWS V14.01,2013-04-13 01:57:00,
2013-04-12 21:00:00,41.2,35.2,29.93,WNW,288,1.0,7.0,79,0.00,,CLR,0.00,VWS V14.01,2013-04-13 02:00:00,
2013-04-12 21:02:00,41.2,35.2,29.93,WNW,297,3.0,5.0,79,0.00,,OVC041,0.00,VWS V14.01,2013-04-13 02:02:00,
2013-04-12 21:07:00,41.3,35.0,29.93,WNW,291,1.0,5.0,78,0.00,,OVC041,0.00,VWS V14.01,2013-04-13 02:07:00,
2013-04-12 21:10:00,41.3,35.3,29.93,WNW,296,0.0,5.0,79,0.00,,CLR,0.00,VWS V14.01,2013-04-13 02:10:00,
2013-04-12 21:12:00,41.2,34.9,29.93,WNW,285,2.0,8.0,78,0.00,,OVC041,0.00,VWS V14.01,2013-04-13 02:12:00,
2013-04-12 21:18:00,41.2,34.9,29.93,WNW,297,2.0,8.0,78,0.00,,OVC041,0.00,VWS V14.01,2013-04-13 02:18:00,
2013-04-12 21:20:00,41.2,34.9,29.93,WNW,285,2.0,8.0,78,0.00,,CLR,0.00,VWS V14.01,2013-04-13 02:20:00,
2013-04-12 21:23:00,41.2,34.5,29.93,NW,323,3.0,13.0,77,0.00,,OVC043,0.00,VWS V14.01,2013-04-13 02:23:00,
2013-04-12 21:28:00,41.2,34.5,29.93,NW,304,3.0,13.0,77,0.00,,OVC043,0.00,VWS V14.01,2013-04-13 02:28:00,
2013-04-12 21:30:00,41.2,34.5,29.93,West,269,1.0,13.0,77,0.00,,CLR,0.00,VWS V14.01,2013-04-13 02:30:00,
2013-04-12 21:33:00,41.2,34.5,29.93,NW,308,4.0,6.0,77,0.00,,OVC043,0.00,VWS V14.01,2013-04-13 02:33:00,
2013-04-12 21:38:00,41.2,34.5,29.93,NW,307,2.0,7.0,77,0.00,,OVC043,0.00,VWS V14.01,2013-04-13 02:38:00,
2013-04-12 21:40:00,41.2,34.5,29.93,NW,307,2.0,7.0,77,0.00,,CLR,0.00,VWS V14.01,2013-04-13 02:40:00,
2013-04-12 21:44:00,41.2,34.5,29.93,NW,320,0.0,5.0,77,0.00,,OVC043,0.00,VWS V14.01,2013-04-13 02:44:00,
2013-04-12 21:49:00,41.2,34.5,29.93,NW,318,2.0,4.0,77,0.00,,OVC043,0.00,VWS V14.01,2013-04-13 02:49:00,
2013-04-12 21:50:00,41.2,34.5,29.93,NNW,337,4.0,5.0,77,0.00,,CLR,0.00,VWS V14.01,2013-04-13 02:50:00,
2013-04-12 21:54:00,41.2,34.5,29.94,West,263,4.0,10.0,77,0.00,,OVC043,0.00,VWS V14.01,2013-04-13 02:54:00,
2013-04-12 21:59:00,41.2,34.5,29.94,NW,304,2.0,3.0,77,0.00,,OVC043,0.00,VWS V14.01,2013-04-13 02:59:00,
2013-04-12 22:00:00,41.2,34.5,29.94,WNW,294,3.0,10.0,77,0.00,,CLR,0.00,VWS V14.01,2013-04-13 03:00:00,
2013-04-12 22:04:00,41.1,34.8,29.94,WNW,290,1.0,5.0,78,0.00,,OVC041,0.00,VWS V14.01,2013-04-13 03:04:00,
2013-04-12 22:10:00,41.1,34.5,29.94,NW,307,1.0,7.0,77,0.00,,OVC041,0.00,VWS V14.01,2013-04-13 03:10:00,
2013-04-12 22:15:00,41.1,34.5,29.94,WNW,300,3.0,7.0,77,0.00,,OVC041,0.00,VWS V14.01,2013-04-13 03:15:00,
2013-04-12 22:20:00,41.1,34.5,29.94,NW,306,3.0,9.0,77,0.00,,OVC039,0.00,VWS V14.01,2013-04-13 03:20:00,
2013-04-12 22:25:00,41.1,34.5,29.95,NW,322,5.0,9.0,77,0.00,,OVC039,0.00,VWS V14.01,2013-04-13 03:25:00,
2013-04-12 22:30:00,41.1,34.5,29.94,WNW,303,2.0,6.0,77,0.00,,OVC039,0.00,VWS V14.01,2013-04-13 03:30:00,
2013-04-12 22:35:00,41.0,34.3,29.95,WNW,297,3.0,7.0,77,0.00,,OVC039,0.00,VWS V14.01,2013-04-13 03:35:00,
2013-04-12 22:40:00,41.0,34.3,29.95,WSW,241,2.0,7.0,77,0.00,,CLR,0.00,VWS V14.01,2013-04-13 03:40:00,
2013-04-12 22:41:00,41.0,34.3,29.95,West,278,2.0,4.0,77,0.00,,OVC037,0.00,VWS V14.01,2013-04-13 03:41:00,
2013-04-12 22:46:00,40.9,34.3,29.95,NNW,331,3.0,8.0,77,0.00,,OVC037,0.00,VWS V14.01,2013-04-13 03:46:00,
2013-04-12 22:50:00,40.9,34.3,29.95,WNW,285,3.0,8.0,77,0.00,,CLR,0.00,VWS V14.01,2013-04-13 03:50:00,
2013-04-12 22:52:00,40.9,34.3,29.95,NW,316,4.0,7.0,77,0.00,,OVC037,0.00,VWS V14.01,2013-04-13 03:52:00,
2013-04-12 22:57:00,40.8,34.2,29.95,NW,321,1.0,7.0,77,0.00,,OVC037,0.00,VWS V14.01,2013-04-13 03:57:00,
2013-04-12 23:00:00,40.8,34.2,29.95,NW,313,2.0,5.0,77,0.00,,OVC039,0.00,VWS V14.01,2013-04-13 04:00:00,
2013-04-12 23:02:00,40.8,34.5,29.95,NNW,341,3.0,5.0,78,0.00,,OVC039,0.00,VWS V14.01,2013-04-13 04:02:00,
2013-04-12 23:07:00,40.7,34.4,29.95,NW,307,1.0,5.0,78,0.00,,OVC039,0.00,VWS V14.01,2013-04-13 04:07:00,
2013-04-12 23:10:00,40.7,34.4,29.95,NW,311,1.0,5.0,78,0.00,,CLR,0.00,VWS V14.01,2013-04-13 04:10:00,
2013-04-12 23:12:00,40.6,34.3,29.95,NW,316,4.0,7.0,78,0.00,,OVC039,0.00,VWS V14.01,2013-04-13 04:12:00,
2013-04-12 23:18:00,40.6,34.0,29.95,NW,319,5.0,8.0,77,0.00,,OVC039,0.00,VWS V14.01,2013-04-13 04:18:00,
2013-04-12 23:20:00,40.5,33.9,29.95,NW,323,4.0,8.0,77,0.00,,CLR,0.00,VWS V14.01,2013-04-13 04:20:00,
2013-04-12 23:23:00,40.5,33.9,29.95,WNW,301,4.0,7.0,77,0.00,,OVC041,0.00,VWS V14.01,2013-04-13 04:23:00,
2013-04-12 23:28:00,40.4,33.8,29.96,WNW,289,2.0,7.0,77,0.00,,OVC041,0.00,VWS V14.01,2013-04-13 04:28:00,
2013-04-12 23:30:00,40.3,33.7,29.96,West,270,4.0,7.0,77,0.00,,CLR,0.00,VWS V14.01,2013-04-13 04:30:00,
2013-04-12 23:33:00,40.2,33.6,29.96,WNW,300,3.0,5.0,77,0.00,,OVC041,0.00,VWS V14.01,2013-04-13 04:33:00,
2013-04-12 23:38:00,40.2,33.6,29.95,WNW,290,4.0,5.0,77,0.00,,OVC041,0.00,VWS V14.01,2013-04-13 04:38:00,
2013-04-12 23:40:00,40.2,33.6,29.95,WNW,288,2.0,6.0,77,0.00,,CLR,0.00,VWS V14.01,2013-04-13 04:40:00,
2013-04-12 23:43:00,40.1,33.5,29.96,WNW,302,1.0,4.0,77,0.00,,OVC041,0.00,VWS V14.01,2013-04-13 04:43:00,
2013-04-12 23:48:00,40.1,33.5,29.95,West,269,3.0,5.0,77,0.00,,OVC041,0.00,VWS V14.01,2013-04-13 04:48:00,
2013-04-12 23:50:00,40.1,33.5,29.95,West,281,3.0,5.0,77,0.00,,CLR,0.00,VWS V14.01,2013-04-13 04:50:00,
2013-04-12 23:53:00,40.1,33.8,29.96,WSW,258,1.0,5.0,78,0.00,,OVC041,0.00,VWS V14.01,2013-04-13 04:53:00,
2013-04-12 23:58:00,40.0,33.4,29.96,WNW,294,4.0,5.0,77,0.00,,OVC041,0.00,VWS V14.01,2013-04-13 04:58:00,